Location: Newark
(38.9311°S, 68.8090°E)
Time: 20:16:19
(UTC+00:00)

N. Korean satellite - Visible Passes

Search period start: 26 January 2020 00:00
Search period end: 05 February 2020 00:00
Orbit: 454 x 507 km, 97.2° (Epoch: 26 January)

Date Brightness Start Highest point End Pass type
(mag) Time Alt. Az. Time Alt. Az. Time Alt. Az.
28 Jan 9.5 23:42:18 10° NE 23:45:18 23° ESE 23:48:21 10° SSE visible
29 Jan 10.2 23:18:34 10° E 23:20:03 12° ESE 23:21:33 10° SE visible
31 Jan 8.5 23:58:36 10° NE 00:02:04 37° ESE 00:05:34 10° S visible
01 Feb 9.8 23:34:05 10° ENE 23:36:44 19° ESE 23:39:24 10° SSE visible
04 Feb 9.0 23:50:13 10° NE 23:53:28 29° ESE 23:56:44 10° S visible
